GW3780 Weather Reports


Display with metric or nautical units.
time (UTC)temp
F
wind
direction
speed
MPH
gust
MPH
rain 1hr
in
rain 24hr
in
rain mn
in
humidity
%
barometer
mb
20260506062306 67 277 1.0 6.0 0.00 0.00 0.00 71 1013.7
20260506061802 67 212 3.0 8.0 0.00 0.00 0.00 71 1013.7
20260506061259 67 257 1.0 2.0 0.00 0.00 0.00 71 1013.6
20260506060757 67 226 1.0 3.0 0.00 0.00 0.00 71 1013.5
20260506060254 67 243 2.0 3.0 0.00 0.00 0.00 70 1013.5
20260506051226 68 257 2.0 4.0 0.00 0.00 0.00 68 1013.9
20260506050724 68 217 3.0 7.0 0.00 0.00 0.00 67 1013.8
20260506050221 68 242 4.0 6.0 0.00 0.00 0.00 67 1013.9
20260506044707 68 229 0.0 2.0 0.00 0.00 0.00 66 1014.0
20260506044203 69 155 2.0 4.0 0.00 0.00 0.00 66 1014.3
20260506043701 69 250 2.0 3.0 0.00 0.00 0.00 65 1014.2
20260506043158 69 187 2.0 4.0 0.00 0.00 0.00 64 1014.2
20260506042657 69 245 1.0 4.0 0.00 0.00 0.00 63 1014.0
20260506042155 69 234 3.0 4.0 0.00 0.00 0.00 62 1014.2
20260506041653 70 150 2.0 4.0 0.00 0.00 0.00 62 1014.0
20260506041150 70 244 3.0 6.0 0.00 0.00 0.00 61 1014.2
20260506040647 70 264 4.0 4.0 0.00 0.00 0.00 61 1014.1
20260506040144 70 251 2.0 3.0 0.00 0.00 0.00 60 1014.0
20260506035641 71 237 3.0 6.0 0.00 0.00 0.00 60 1014.2
20260506035138 70 247 2.0 3.0 0.00 0.00 0.00 60 1014.1
20260506034635 71 212 2.0 5.0 0.00 0.00 0.00 59 1014.1
20260506034132 71 188 4.0 6.0 0.00 0.00 0.00 59 1014.0
20260506033629 71 227 1.0 3.0 0.00 0.00 0.00 59 1014.1
20260506033126 71 236 3.0 4.0 0.00 0.00 0.00 58 1014.0
20260506032623 71 127 3.0 6.0 0.00 0.00 0.00 58 1014.1
20260506032120 71 255 2.0 6.0 0.00 0.00 0.00 57 1014.2
20260506031617 71 236 0.0 8.0 0.00 0.00 0.00 57 1014.1
20260506031114 72 204 2.0 5.0 0.00 0.00 0.00 57 1013.9
20260506030613 72 233 3.0 3.0 0.00 0.00 0.00 57 1014.1
20260506030109 72 224 2.0 2.0 0.00 0.00 0.00 56 1013.9
20260506025606 72 209 4.0 5.0 0.00 0.00 0.00 56 1013.9
20260506025102 72 195 1.0 4.0 0.00 0.00 0.00 56 1014.0
20260506024600 72 227 4.0 5.0 0.00 0.00 0.00 55 1014.0
20260506024056 72 129 2.0 3.0 0.00 0.00 0.00 55 1013.9
20260506023552 72 263 3.0 4.0 0.00 0.00 0.00 55 1014.2
20260506023050 72 257 2.0 2.0 0.00 0.00 0.00 55 1014.1
20260506022547 72 243 2.0 4.0 0.00 0.00 0.00 54 1014.2
20260506022044 73 252 3.0 5.0 0.00 0.00 0.00 54 1014.1
20260506021541 73 268 2.0 4.0 0.00 0.00 0.00 54 1014.1
20260506021039 73 236 0.0 4.0 0.00 0.00 0.00 54 1014.0
20260506020536 73 165 2.0 5.0 0.00 0.00 0.00 54 1014.2
20260506020033 73 297 1.0 2.0 0.00 0.00 0.00 54 1014.0
20260506015531 73 268 2.0 2.0 0.00 0.00 0.00 53 1014.0
20260506015027 73 223 2.0 3.0 0.00 0.00 0.00 52 1013.8
20260506014525 73 172 2.0 3.0 0.00 0.00 0.00 52 1013.9
20260506014021 74 268 1.0 6.0 0.00 0.00 0.00 52 1013.7
20260506013519 74 209 5.0 5.0 0.00 0.00 0.00 51 1013.8
20260506013015 74 243 3.0 3.0 0.00 0.00 0.00 51 1013.8
20260506012512 74 260 0.0 3.0 0.00 0.00 0.00 51 1013.5
20260506012009 74 230 1.0 3.0 0.00 0.00 0.00 51 1013.6
20260506011506 74 242 2.0 3.0 0.00 0.00 0.00 50 1013.6
20260506011002 74 158 2.0 4.0 0.00 0.00 0.00 51 1013.5
20260506010502 74 183 2.0 2.0 0.00 0.00 0.00 50 1013.5
20260506005957 74 200 0.0 6.0 0.00 0.00 0.00 49 1013.5
20260506005455 75 315 0.0 3.0 0.00 0.00 0.00 49 1013.7
20260506004950 75 274 1.0 4.0 0.00 0.00 0.00 49 1013.4
20260506004448 75 212 2.0 2.0 0.00 0.00 0.00 49 1013.3
20260506003944 75 205 0.0 2.0 0.00 0.00 0.00 48 1013.3
20260506003441 75 216 3.0 4.0 0.00 0.00 0.00 48 1013.1
20260506002937 76 153 1.0 4.0 0.00 0.00 0.00 47 1013.1
20260506002433 76 222 3.0 6.0 0.00 0.00 0.00 47 1013.1
20260506001929 76 352 0.0 4.0 0.00 0.00 0.00 47 1013.1
20260506001426 76 184 1.0 3.0 0.00 0.00 0.00 46 1013.2
20260506000923 76 192 0.0 4.0 0.00 0.00 0.00 46 1013.0
20260506000423 76 226 0.0 5.0 0.00 0.00 0.00 46 1013.1
20260505235917 77 215 1.0 5.0 0.00 0.00 0.00 45 1012.9
20260505235415 77 207 2.0 4.0 0.00 0.00 0.00 45 1013.1
20260505234912 77 231 0.0 3.0 0.00 0.00 0.00 45 1012.9
20260505234410 77 223 0.0 5.0 0.00 0.00 0.00 44 1012.8
20260505233906 77 235 0.0 3.0 0.00 0.00 0.00 44 1012.9
20260505233404 77 251 2.0 4.0 0.00 0.00 0.00 43 1012.8
20260505232901 78 216 3.0 5.0 0.00 0.00 0.00 43 1013.0
20260505232359 78 232 1.0 3.0 0.00 0.00 0.00 42 1012.8
20260505231855 78 273 1.0 3.0 0.00 0.00 0.00 42 1012.9
20260505231353 78 251 1.0 5.0 0.00 0.00 0.00 41 1012.9
20260505230851 78 249 3.0 6.0 0.00 0.00 0.00 41 1012.6
20260505230348 78 253 2.0 4.0 0.00 0.00 0.00 41 1013.0
20260505225844 79 220 4.0 4.0 0.00 0.00 0.00 40 1013.0
20260505225342 79 237 3.0 5.0 0.00 0.00 0.00 39 1012.9
20260505224837 79 206 0.0 2.0 0.00 0.00 0.00 38 1012.7
20260505224335 79 261 2.0 3.0 0.00 0.00 0.00 37 1012.8
20260505223832 80 258 2.0 7.0 0.00 0.00 0.00 36 1012.8
20260505223329 79 198 2.0 4.0 0.00 0.00 0.00 37 1012.7
20260505222824 80 267 2.0 4.0 0.00 0.00 0.00 37 1013.0
20260505222321 80 198 5.0 5.0 0.00 0.00 0.00 36 1012.9
20260505221818 80 267 2.0 6.0 0.00 0.00 0.00 36 1012.9
20260505221315 80 158 4.0 6.0 0.00 0.00 0.00 36 1013.0
20260505220812 80 196 3.0 4.0 0.00 0.00 0.00 35 1012.8
20260505220309 80 214 2.0 5.0 0.00 0.00 0.00 34 1012.7
20260505215807 80 178 3.0 5.0 0.00 0.00 0.00 34 1012.8
20260505215305 80 243 3.0 5.0 0.00 0.00 0.00 34 1012.7
20260505214802 80 300 3.0 5.0 0.00 0.00 0.00 34 1012.4
20260505214300 80 211 5.0 5.0 0.00 0.00 0.00 33 1012.7
20260505213756 80 163 5.0 8.0 0.00 0.00 0.00 33 1012.7
20260505213254 80 153 3.0 8.0 0.00 0.00 0.00 33 1012.7
20260505212749 80 203 4.0 7.0 0.00 0.00 0.00 33 1012.7
20260505212247 81 255 4.0 8.0 0.00 0.00 0.00 33 1012.6
20260505211744 81 186 2.0 9.0 0.00 0.00 0.00 33 1012.7
20260505211241 81 186 2.0 6.0 0.00 0.00 0.00 32 1012.4
20260505210737 81 223 2.0 7.0 0.00 0.00 0.00 33 1012.7
20260505210234 82 302 2.0 6.0 0.00 0.00 0.00 34 1012.6
20260505205732 82 254 2.0 9.0 0.00 0.00 0.00 33 1012.7
20260505205230 82 201 6.0 9.0 0.00 0.00 0.00 33 1012.4
20260505204726 82 89 1.0 6.0 0.00 0.00 0.00 33 1012.6
20260505204224 81 210 1.0 4.0 0.00 0.00 0.00 33 1012.7
20260505203721 82 188 4.0 5.0 0.00 0.00 0.00 32 1012.3
20260505203218 83 261 2.0 6.0 0.00 0.00 0.00 33 1012.5
20260505202713 82 244 3.0 8.0 0.00 0.00 0.00 32 1012.5
20260505202210 82 267 4.0 5.0 0.00 0.00 0.00 31 1012.5
20260505201706 83 254 4.0 5.0 0.00 0.00 0.00 31 1012.6
20260505201205 83 161 2.0 5.0 0.00 0.00 0.00 31 1012.6
20260505200702 82 223 2.0 6.0 0.00 0.00 0.00 31 1012.8
20260505200159 83 260 4.0 4.0 0.00 0.00 0.00 31 1012.7
20260505195655 83 193 2.0 5.0 0.00 0.00 0.00 32 1012.6
20260505195152 82 275 1.0 7.0 0.00 0.00 0.00 31 1012.9
20260505194649 83 217 5.0 6.0 0.00 0.00 0.00 31 1012.8
20260505194145 83 154 2.0 6.0 0.00 0.00 0.00 32 1013.0
20260505193642 83 216 4.0 5.0 0.00 0.00 0.00 33 1013.0
20260505193139 82 189 3.0 6.0 0.00 0.00 0.00 33 1013.0
20260505192638 83 297 1.0 8.0 0.00 0.00 0.00 33 1013.2
20260505192135 83 243 6.0 6.0 0.00 0.00 0.00 32 1013.1
20260505191633 83 201 5.0 9.0 0.00 0.00 0.00 31 1013.3
20260505191131 83 258 2.0 8.0 0.00 0.00 0.00 31 1013.4
20260505190627 83 159 4.0 8.0 0.00 0.00 0.00 31 1013.4
20260505190121 83 214 3.0 9.0 0.00 0.00 0.00 30 1013.5
20260505185619 83 278 4.0 7.0 0.00 0.00 0.00 31 1013.7
20260505185115 83 185 1.0 5.0 0.00 0.00 0.00 32 1013.5
20260505184611 83 225 2.0 6.0 0.00 0.00 0.00 31 1013.9
20260505184108 83 194 4.0 5.0 0.00 0.00 0.00 31 1013.7
20260505183605 83 256 1.0 6.0 0.00 0.00 0.00 31 1013.8
20260505183103 83 266 4.0 6.0 0.00 0.00 0.00 31 1013.9
20260505182559 83 154 3.0 8.0 0.00 0.00 0.00 32 1013.9
20260505182056 84 250 1.0 4.0 0.00 0.00 0.00 31 1013.9
20260505181552 83 242 3.0 8.0 0.00 0.00 0.00 32 1014.2
20260505181050 82 159 2.0 6.0 0.00 0.00 0.00 33 1014.2
20260505180545 83 250 1.0 6.0 0.00 0.00 0.00 33 1014.3
20260505180043 82 210 3.0 5.0 0.00 0.00 0.00 33 1014.1
20260505175538 82 265 2.0 6.0 0.00 0.00 0.00 34 1014.3
20260505175035 82 240 1.0 3.0 0.00 0.00 0.00 35 1014.3
20260505174532 82 225 5.0 5.0 0.00 0.00 0.00 36 1014.3
20260505174028 82 293 1.0 4.0 0.00 0.00 0.00 39 1014.2
20260505173525 81 209 2.0 7.0 0.00 0.00 0.00 38 1014.5
20260505173022 80 268 3.0 6.0 0.00 0.00 0.00 40 1014.4
20260505172520 81 199 2.0 4.0 0.00 0.00 0.00 40 1014.6
20260505172015 80 228 2.0 5.0 0.00 0.00 0.00 40 1014.5
20260505171511 80 195 4.0 5.0 0.00 0.00 0.00 41 1014.9
20260505171008 80 182 2.0 9.0 0.00 0.00 0.00 40 1014.9
20260505170505 80 224 2.0 2.0 0.00 0.00 0.00 42 1014.7
20260505170000 79 191 0.0 6.0 0.00 0.00 0.00 43 1014.8
20260505165456 79 221 2.0 5.0 0.00 0.00 0.00 42 1015.1
20260505164952 79 211 3.0 5.0 0.00 0.00 0.00 42 1015.0
20260505164448 78 260 2.0 6.0 0.00 0.00 0.00 42 1014.8
20260505163946 78 208 1.0 4.0 0.00 0.00 0.00 41 1015.2
20260505163445 79 248 2.0 3.0 0.00 0.00 0.00 43 1015.0
20260505162944 78 252 2.0 4.0 0.00 0.00 0.00 44 1015.0
20260505162439 78 242 3.0 4.0 0.00 0.00 0.00 44 1015.2
20260505161936 77 219 3.0 6.0 0.00 0.00 0.00 43 1015.1
20260505161433 77 238 2.0 3.0 0.00 0.00 0.00 45 1015.3
20260505160930 77 216 2.0 3.0 0.00 0.00 0.00 46 1015.5
20260505160429 78 200 3.0 4.0 0.00 0.00 0.00 49 1015.6
20260505152904 74 187 1.0 3.0 0.00 0.00 0.00 52 1015.9
20260505152401 74 265 4.0 6.0 0.00 0.00 0.00 51 1015.9
20260505151855 74 196 0.0 4.0 0.00 0.00 0.00 52 1015.8
20260505151352 73 262 2.0 3.0 0.00 0.00 0.00 52 1016.1
20260505150849 73 222 3.0 4.0 0.00 0.00 0.00 52 1015.8
20260505150346 73 186 0.0 6.0 0.00 0.00 0.00 53 1016.2
20260505140311 69 209 1.0 4.0 0.00 0.00 0.00 58 1015.7
20260505130234 66 197 2.0 5.0 0.00 0.00 0.00 63 1016.2
20260505124725 65 273 1.0 2.0 0.00 0.00 0.00 66 1016.2
20260505124222 64 217 2.0 4.0 0.00 0.00 0.00 67 1015.9
20260505123717 64 205 2.0 6.0 0.00 0.00 0.00 68 1016.1
20260505123214 63 212 3.0 4.0 0.00 0.00 0.00 68 1015.8
20260505122711 62 199 5.0 6.0 0.00 0.00 0.00 70 1016.2
20260505122208 62 188 2.0 3.0 0.00 0.00 0.00 71 1016.1
20260505121704 62 282 2.0 3.0 0.00 0.00 0.00 72 1015.9
20260505121201 62 206 1.0 5.0 0.00 0.00 0.00 71 1016.1
20260505120657 62 232 3.0 5.0 0.00 0.00 0.00 72 1016.1
20260505120153 61 253 0.0 6.0 0.00 0.00 0.00 72 1015.8
20260505115647 61 249 0.0 3.0 0.00 0.00 0.00 73 1015.6
20260505115145 61 223 3.0 3.0 0.00 0.00 0.00 73 1015.6
20260505114642 61 193 3.0 5.0 0.00 0.00 0.00 74 1015.7
20260505114138 60 169 2.0 5.0 0.00 0.00 0.00 74 1015.6
20260505113635 60 265 2.0 3.0 0.00 0.00 0.00 74 1015.5
20260505113131 60 280 0.0 5.0 0.00 0.00 0.00 74 1015.4
20260505112627 60 225 4.0 6.0 0.00 0.00 0.00 74 1015.5
20260505112126 60 265 2.0 5.0 0.00 0.00 0.00 74 1015.5
20260505111620 60 231 2.0 2.0 0.00 0.00 0.00 75 1015.3
20260505111116 60 180 2.0 4.0 0.00 0.00 0.00 75 1015.6
20260505110612 60 228 2.0 4.0 0.00 0.00 0.00 75 1015.2
20260505110109 60 212 3.0 3.0 0.00 0.00 0.00 75 1015.1
20260505102045 59 252 1.0 4.0 0.00 0.00 0.00 75 1015.2
20260505101543 59 296 1.0 4.0 0.00 0.00 0.00 75 1014.7
20260505101039 59 184 1.0 3.0 0.00 0.00 0.00 75 1014.9
20260505100536 59 218 2.0 4.0 0.00 0.00 0.00 75 1014.8
20260505100033 59 238 1.0 4.0 0.00 0.00 0.00 75 1015.1
20260505095529 60 204 0.0 3.0 0.00 0.00 0.00 74 1014.9
20260505095026 60 195 3.0 6.0 0.00 0.00 0.00 74 1014.8
20260505094522 60 280 1.0 2.0 0.00 0.00 0.00 74 1015.0
20260505094019 60 135 0.0 2.0 0.00 0.00 0.00 74 1014.9
20260505093515 60 267 0.0 3.0 0.00 0.00 0.00 73 1014.9
20260505093013 60 256 3.0 3.0 0.00 0.00 0.00 73 1014.7
20260505092510 60 259 1.0 5.0 0.00 0.00 0.00 72 1015.0
20260505092008 61 164 2.0 4.0 0.00 0.00 0.00 72 1014.9
20260505091505 61 251 1.0 4.0 0.00 0.00 0.00 72 1014.9
20260505091003 61 174 2.0 3.0 0.00 0.00 0.00 71 1014.8
20260505090501 61 148 0.0 4.0 0.00 0.00 0.00 71 1014.6
20260505085958 61 212 1.0 5.0 0.00 0.00 0.00 71 1014.6
20260505085456 61 188 3.0 4.0 0.00 0.00 0.00 70 1014.8
20260505084954 61 268 2.0 5.0 0.00 0.00 0.00 70 1014.7
20260505084452 62 142 0.0 4.0 0.00 0.00 0.00 70 1014.8
20260505083949 62 174 2.0 6.0 0.00 0.00 0.00 69 1014.7
20260505083446 62 147 1.0 3.0 0.00 0.00 0.00 69 1014.6
20260505082942 62 221 0.0 3.0 0.00 0.00 0.00 68 1014.3
20260505082438 62 235 0.0 4.0 0.00 0.00 0.00 68 1014.7
20260505081936 62 173 3.0 6.0 0.00 0.00 0.00 68 1014.6
20260505081432 62 228 2.0 4.0 0.00 0.00 0.00 68 1014.7
20260505080929 62 221 1.0 5.0 0.00 0.00 0.00 67 1014.7
20260505080425 62 178 2.0 3.0 0.00 0.00 0.00 67 1014.6
20260505075920 62 238 2.0 3.0 0.00 0.00 0.00 67 1014.5
20260505075418 62 242 0.0 4.0 0.00 0.00 0.00 67 1014.4
20260505074915 62 195 4.0 6.0 0.00 0.00 0.00 66 1014.6
20260505074412 62 234 0.0 3.0 0.00 0.00 0.00 66 1014.7
20260505073909 63 242 1.0 3.0 0.00 0.00 0.00 65 1014.6
20260505073407 63 218 1.0 4.0 0.00 0.00 0.00 65 1014.4
20260505072904 63 211 2.0 4.0 0.00 0.00 0.00 64 1014.4
20260505072400 63 209 3.0 3.0 0.00 0.00 0.00 64 1014.4
20260505071856 63 236 2.0 4.0 0.00 0.00 0.00 63 1014.5
20260505071352 63 53 0.0 3.0 0.00 0.00 0.00 63 1014.4
20260505070851 63 172 3.0 3.0 0.00 0.00 0.00 62 1014.1
20260505070347 63 201 1.0 4.0 0.00 0.00 0.00 62 1014.5
20260505065842 63 63 1.0 3.0 0.00 0.00 0.00 61 1014.1
20260505065339 63 228 0.0 4.0 0.00 0.00 0.00 61 1014.3
20260505064836 63 300 1.0 4.0 0.00 0.00 0.00 61 1014.4